Tracking 29967 objects as of 5-Dec-2024
HD Live streaming from Space Station
objects crossing your sky now

STARLINK-11250

Track STARLINK-11250 now!
10-day predictions
STARLINK-11250 is classified as:


NORAD ID: 60910
Int'l Code: 2024-154H
Perigee: 366.3 km
Apogee: 367.5 km
Inclination: 53.2 °
Period: 91.7 minutes
Semi major axis: 6737 km
RCS: Unknown
Launch date: August 31, 2024
Source: United States (US)
Launch site: AIR FORCE EASTERN TEST RANGE (AFETR)
Your satellite tracking list
Your tracking list is empty




NASA's NSSDC Master Catalog

Two Line Element Set (TLE):
1 60910U 24154H   24340.44519686 -.00001554  00000-0 -79773-5 0  9993
2 60910  53.1601 235.2600 0000898  85.0234 275.0886 15.69704375 16380
Source of the keplerian elements: AFSPC